TAM3950 SBSP-SBRJ

Flight info

Callsign TAM3950
Flight time 0h 44m
Altitude 25000
Route BAIAN2A NIBRU UZ171 KEVUN ASALU1A
Aircraft A20N/M-L/S

Departure

Time 2026-05-05 22:11
Airport Congonhas–Deputado Freitas Nobre Airport (SBSP)

Arrival

Time 2026-05-05 22:55
Airport Santos Dumont Airport (SBRJ)
Time Latitude Longitude Altitude Speed Heading
2026-05-05 21:51 -23.62577 -46.65924 2622 ft 0 kts 238°
2026-05-05 22:03 -23.62571 -46.65915 2621 ft 2 kts 243°
2026-05-05 22:03 -23.62566 -46.65900 2621 ft 2 kts 259°
2026-05-05 22:04 -23.62564 -46.65884 2621 ft 2 kts 281°
2026-05-05 22:04 -23.62569 -46.65871 2621 ft 0 kts 332°
2026-05-05 22:04 -23.62570 -46.65871 2621 ft 0 kts 333°
2026-05-05 22:04 -23.62569 -46.65871 2621 ft 0 kts 333°
2026-05-05 22:07 -23.62537 -46.65892 2620 ft 11 kts 329°
2026-05-05 22:08 -23.62429 -46.65938 2618 ft 23 kts 327°
2026-05-05 22:08 -23.62287 -46.66014 2614 ft 11 kts 334°
2026-05-05 22:08 -23.62184 -46.66075 2610 ft 24 kts 326°
2026-05-05 22:08 -23.62135 -46.66112 2608 ft 0 kts 325°
2026-05-05 22:09 -23.62112 -46.66126 2608 ft 8 kts 338°
2026-05-05 22:10 -23.62036 -46.66098 2604 ft 6 kts 84°
2026-05-05 22:10 -23.62082 -46.66049 2607 ft 15 kts 144°
2026-05-05 22:10 -23.62099 -46.66037 2607 ft 1 kts 147°
2026-05-05 22:10 -23.62145 -46.66004 2610 ft 26 kts 148°
2026-05-05 22:11 -23.62560 -46.65717 2621 ft 112 kts 148°
2026-05-05 22:11 -23.63397 -46.65139 2769 ft 161 kts 147°
2026-05-05 22:11 -23.64370 -46.64447 3381 ft 175 kts 146°
2026-05-05 22:11 -23.65415 -46.63664 4005 ft 188 kts 144°
2026-05-05 22:12 -23.66510 -46.62839 4650 ft 203 kts 146°
2026-05-05 22:12 -23.67758 -46.61971 5170 ft 227 kts 148°
2026-05-05 22:12 -23.69166 -46.61021 5787 ft 249 kts 148°
2026-05-05 22:12 -23.70512 -46.59721 6398 ft 270 kts 124°
2026-05-05 22:13 -23.71200 -46.57794 7270 ft 277 kts 101°
2026-05-05 22:13 -23.71479 -46.55705 8273 ft 280 kts 97°
2026-05-05 22:13 -23.71680 -46.53577 9268 ft 283 kts 96°
2026-05-05 22:13 -23.71880 -46.51422 10264 ft 287 kts 96°
2026-05-05 22:14 -23.72001 -46.49190 10857 ft 305 kts 89°
2026-05-05 22:14 -23.71773 -46.46828 11179 ft 330 kts 81°
2026-05-05 22:14 -23.71390 -46.44292 11691 ft 344 kts 81°
2026-05-05 22:14 -23.71007 -46.41687 12529 ft 349 kts 81°
2026-05-05 22:15 -23.70626 -46.39043 13342 ft 355 kts 81°
2026-05-05 22:15 -23.70244 -46.36361 14143 ft 360 kts 81°
2026-05-05 22:15 -23.69857 -46.33645 14840 ft 365 kts 81°
2026-05-05 22:15 -23.69463 -46.30882 15550 ft 370 kts 82°
2026-05-05 22:16 -23.69064 -46.28083 16224 ft 376 kts 82°
2026-05-05 22:16 -23.68659 -46.25247 16909 ft 380 kts 82°
2026-05-05 22:16 -23.68389 -46.23352 17366 ft 383 kts 82°
2026-05-05 22:16 -23.67839 -46.19514 18205 ft 389 kts 82°
2026-05-05 22:17 -23.67419 -46.16582 18810 ft 393 kts 82°
2026-05-05 22:17 -23.66994 -46.13628 19423 ft 396 kts 82°
2026-05-05 22:17 -23.66566 -46.10648 19988 ft 400 kts 82°
2026-05-05 22:17 -23.66135 -46.07641 20569 ft 404 kts 82°
2026-05-05 22:18 -23.65841 -46.05589 20953 ft 406 kts 82°
2026-05-05 22:18 -23.65402 -46.02525 21531 ft 410 kts 82°
2026-05-05 22:18 -23.64965 -45.99478 22096 ft 414 kts 82°
2026-05-05 22:18 -23.64516 -45.96361 22685 ft 418 kts 82°
2026-05-05 22:19 -23.64062 -45.93211 23272 ft 421 kts 82°
2026-05-05 22:19 -23.63602 -45.90029 23826 ft 426 kts 82°
2026-05-05 22:19 -23.63139 -45.86823 24298 ft 430 kts 82°
2026-05-05 22:19 -23.62669 -45.83586 24780 ft 434 kts 82°
2026-05-05 22:20 -23.62195 -45.80318 25096 ft 438 kts 82°
2026-05-05 22:20 -23.61718 -45.77039 25195 ft 438 kts 82°
2026-05-05 22:20 -23.61240 -45.73758 25208 ft 437 kts 82°
2026-05-05 22:20 -23.60763 -45.70483 25209 ft 437 kts 82°
2026-05-05 22:21 -23.60284 -45.67203 25206 ft 438 kts 82°
2026-05-05 22:21 -23.59811 -45.63966 25204 ft 437 kts 82°
2026-05-05 22:21 -23.59332 -45.60690 25209 ft 437 kts 82°
2026-05-05 22:21 -23.58850 -45.57403 25208 ft 437 kts 82°
2026-05-05 22:22 -23.58369 -45.54131 25205 ft 437 kts 82°
2026-05-05 22:22 -23.57887 -45.50854 25209 ft 437 kts 82°
2026-05-05 22:22 -23.57403 -45.47576 25209 ft 437 kts 81°
2026-05-05 22:22 -23.56764 -45.44338 25212 ft 438 kts 78°
2026-05-05 22:23 -23.56073 -45.41095 25212 ft 438 kts 78°
2026-05-05 22:23 -23.55398 -45.37903 25215 ft 438 kts 78°
2026-05-05 22:23 -23.54714 -45.34666 25210 ft 437 kts 78°
2026-05-05 22:23 -23.54031 -45.31436 25212 ft 438 kts 78°
2026-05-05 22:24 -23.53345 -45.28196 25215 ft 437 kts 78°
2026-05-05 22:24 -23.52659 -45.24965 25214 ft 438 kts 78°
2026-05-05 22:24 -23.51971 -45.21732 25215 ft 437 kts 78°
2026-05-05 22:24 -23.51283 -45.18500 25214 ft 437 kts 78°
2026-05-05 22:25 -23.50596 -45.15277 25201 ft 438 kts 78°
2026-05-05 22:25 -23.49907 -45.12043 25204 ft 438 kts 78°
2026-05-05 22:25 -23.49218 -45.08817 25203 ft 438 kts 78°
2026-05-05 22:25 -23.48527 -45.05585 25206 ft 438 kts 78°
2026-05-05 22:26 -23.47835 -45.02349 25209 ft 438 kts 78°
2026-05-05 22:26 -23.47143 -44.99123 25209 ft 438 kts 78°
2026-05-05 22:26 -23.46451 -44.95893 25207 ft 438 kts 78°
2026-05-05 22:26 -23.45761 -44.92706 25217 ft 436 kts 78°
2026-05-05 22:27 -23.45048 -44.89491 25206 ft 436 kts 77°
2026-05-05 22:27 -23.44333 -44.86283 25206 ft 436 kts 77°
2026-05-05 22:27 -23.43617 -44.83077 25201 ft 436 kts 77°
2026-05-05 22:27 -23.42900 -44.79864 25204 ft 436 kts 77°
2026-05-05 22:28 -23.42184 -44.76648 25166 ft 436 kts 77°
2026-05-05 22:28 -23.41472 -44.73457 24913 ft 432 kts 77°
2026-05-05 22:28 -23.40772 -44.70316 24477 ft 429 kts 77°
2026-05-05 22:28 -23.40071 -44.67177 23961 ft 425 kts 77°
2026-05-05 22:29 -23.39375 -44.64058 23365 ft 420 kts 77°
2026-05-05 22:29 -23.38687 -44.60981 22765 ft 416 kts 77°
2026-05-05 22:29 -23.38005 -44.57932 22144 ft 412 kts 77°
2026-05-05 22:29 -23.37331 -44.54920 21569 ft 407 kts 77°
2026-05-05 22:30 -23.36663 -44.51940 20992 ft 402 kts 77°
2026-05-05 22:30 -23.36011 -44.49034 20438 ft 398 kts 77°
2026-05-05 22:30 -23.35357 -44.46126 19905 ft 393 kts 77°
2026-05-05 22:30 -23.34689 -44.43256 19357 ft 389 kts 73°
2026-05-05 22:31 -23.33755 -44.40506 18836 ft 385 kts 66°
2026-05-05 22:31 -23.32622 -44.37894 18302 ft 380 kts 65°
2026-05-05 22:31 -23.31506 -44.35309 17662 ft 378 kts 65°
2026-05-05 22:31 -23.30398 -44.32730 17097 ft 373 kts 65°
2026-05-05 22:32 -23.29301 -44.30173 16445 ft 372 kts 65°
2026-05-05 22:32 -23.28211 -44.27634 15888 ft 369 kts 65°
2026-05-05 22:32 -23.27129 -44.25117 15319 ft 367 kts 65°
2026-05-05 22:32 -23.26051 -44.22612 14786 ft 363 kts 65°
2026-05-05 22:33 -23.24982 -44.20132 14268 ft 360 kts 65°
2026-05-05 22:33 -23.23923 -44.17674 13680 ft 358 kts 65°
2026-05-05 22:33 -23.22870 -44.15233 13108 ft 355 kts 65°
2026-05-05 22:33 -23.21826 -44.12814 12544 ft 352 kts 65°
2026-05-05 22:34 -23.20789 -44.10410 11998 ft 350 kts 65°
2026-05-05 22:34 -23.19771 -44.08053 11461 ft 347 kts 66°
2026-05-05 22:34 -23.18724 -44.05700 10933 ft 345 kts 64°
2026-05-05 22:34 -23.17659 -44.03400 10680 ft 333 kts 64°
2026-05-05 22:35 -23.16628 -44.01193 10545 ft 319 kts 64°
2026-05-05 22:35 -23.15646 -43.99083 10425 ft 305 kts 64°
2026-05-05 22:35 -23.14741 -43.97043 10195 ft 297 kts 66°
2026-05-05 22:35 -23.13879 -43.95012 9795 ft 295 kts 67°
2026-05-05 22:36 -23.13031 -43.92992 9394 ft 292 kts 67°
2026-05-05 22:36 -23.12188 -43.90994 8981 ft 290 kts 66°
2026-05-05 22:36 -23.11357 -43.89036 8569 ft 289 kts 66°
2026-05-05 22:36 -23.10513 -43.87059 8162 ft 288 kts 66°
2026-05-05 22:37 -23.09673 -43.85095 7760 ft 286 kts 66°
2026-05-05 22:37 -23.08835 -43.83138 7366 ft 285 kts 66°
2026-05-05 22:37 -23.07995 -43.81179 6928 ft 286 kts 66°
2026-05-05 22:37 -23.07160 -43.79230 6554 ft 284 kts 66°
2026-05-05 22:38 -23.06327 -43.77287 6168 ft 283 kts 66°
2026-05-05 22:38 -23.05500 -43.75358 5799 ft 281 kts 66°
2026-05-05 22:38 -23.04677 -43.73441 5415 ft 279 kts 66°
2026-05-05 22:38 -23.03861 -43.71539 5126 ft 275 kts 66°
2026-05-05 22:39 -23.03047 -43.69641 5041 ft 279 kts 65°
2026-05-05 22:39 -23.02223 -43.67741 5026 ft 277 kts 65°
2026-05-05 22:39 -23.01392 -43.65844 5037 ft 280 kts 65°
2026-05-05 22:39 -23.00551 -43.63928 5448 ft 279 kts 65°
2026-05-05 22:40 -22.99747 -43.62099 5847 ft 256 kts 65°
2026-05-05 22:40 -22.99013 -43.60433 5985 ft 234 kts 65°
2026-05-05 22:40 -22.98347 -43.58923 6035 ft 216 kts 66°
2026-05-05 22:40 -22.97723 -43.57507 6033 ft 201 kts 66°
2026-05-05 22:41 -22.97108 -43.56106 6035 ft 208 kts 66°
2026-05-05 22:41 -22.96491 -43.54701 6037 ft 205 kts 66°
2026-05-05 22:41 -22.95874 -43.53297 6037 ft 206 kts 66°
2026-05-05 22:41 -22.95258 -43.51897 6015 ft 205 kts 66°
2026-05-05 22:42 -22.94647 -43.50507 5832 ft 204 kts 66°
2026-05-05 22:42 -22.94049 -43.49106 5579 ft 204 kts 66°
2026-05-05 22:42 -22.93462 -43.47710 5348 ft 203 kts 66°
2026-05-05 22:42 -22.92875 -43.46320 5085 ft 202 kts 66°
2026-05-05 22:43 -22.92291 -43.44933 4821 ft 203 kts 66°
2026-05-05 22:43 -22.91705 -43.43546 4568 ft 202 kts 66°
2026-05-05 22:43 -22.91121 -43.42163 4297 ft 203 kts 66°
2026-05-05 22:43 -22.90540 -43.40789 4066 ft 201 kts 66°
2026-05-05 22:44 -22.89955 -43.39414 3812 ft 200 kts 66°
2026-05-05 22:44 -22.89371 -43.38038 3509 ft 203 kts 66°
2026-05-05 22:44 -22.88779 -43.36641 3279 ft 201 kts 66°
2026-05-05 22:44 -22.88212 -43.35281 3116 ft 196 kts 70°
2026-05-05 22:45 -22.87775 -43.33907 2974 ft 192 kts 72°
2026-05-05 22:45 -22.87354 -43.32578 2972 ft 177 kts 71°
2026-05-05 22:45 -22.86965 -43.31361 2881 ft 164 kts 70°
2026-05-05 22:45 -22.86606 -43.30248 2794 ft 153 kts 71°
2026-05-05 22:46 -22.86296 -43.29183 2657 ft 145 kts 84°
2026-05-05 22:46 -22.86603 -43.28171 2411 ft 148 kts 134°
2026-05-05 22:46 -22.87544 -43.27770 2177 ft 151 kts 184°
2026-05-05 22:46 -22.88472 -43.28285 2045 ft 156 kts 226°
2026-05-05 22:47 -22.89114 -43.29231 1993 ft 156 kts 239°
2026-05-05 22:47 -22.89610 -43.30292 2007 ft 157 kts 246°
2026-05-05 22:47 -22.89999 -43.31393 2013 ft 156 kts 252°
2026-05-05 22:47 -22.90415 -43.32490 2018 ft 159 kts 242°
2026-05-05 22:48 -22.90949 -43.33518 2003 ft 158 kts 240°
2026-05-05 22:48 -22.91306 -43.34620 2017 ft 155 kts 264°
2026-05-05 22:48 -22.91071 -43.35759 2041 ft 161 kts 306°
2026-05-05 22:48 -22.90251 -43.36445 1999 ft 144 kts 349°
2026-05-05 22:49 -22.89224 -43.36425 1994 ft 149 kts 25°
2026-05-05 22:49 -22.88441 -43.35775 2006 ft 144 kts 57°
2026-05-05 22:49 -22.88086 -43.34804 2008 ft 140 kts 77°
2026-05-05 22:49 -22.87819 -43.33846 2006 ft 126 kts 72°
2026-05-05 22:50 -22.87523 -43.32940 2005 ft 128 kts 71°
2026-05-05 22:50 -22.87217 -43.32038 2004 ft 128 kts 71°
2026-05-05 22:50 -22.86912 -43.31128 2006 ft 127 kts 71°
2026-05-05 22:50 -22.86613 -43.30218 2002 ft 128 kts 71°
2026-05-05 22:51 -22.86320 -43.29319 2007 ft 127 kts 71°
2026-05-05 22:51 -22.86025 -43.28412 2011 ft 128 kts 71°
2026-05-05 22:51 -22.85732 -43.27504 2000 ft 127 kts 71°
2026-05-05 22:51 -22.85502 -43.26583 2041 ft 129 kts 84°
2026-05-05 22:52 -22.85563 -43.25625 1943 ft 125 kts 99°
2026-05-05 22:52 -22.85712 -43.24692 1668 ft 126 kts 99°
2026-05-05 22:52 -22.85850 -43.23757 1493 ft 127 kts 98°
2026-05-05 22:52 -22.85984 -43.22806 1326 ft 128 kts 98°
2026-05-05 22:53 -22.86116 -43.21859 1145 ft 126 kts 99°
2026-05-05 22:53 -22.86292 -43.20922 987 ft 126 kts 106°
2026-05-05 22:53 -22.86566 -43.20031 867 ft 123 kts 112°
2026-05-05 22:53 -22.86890 -43.19190 686 ft 126 kts 116°
2026-05-05 22:54 -22.87317 -43.18352 565 ft 128 kts 127°
2026-05-05 22:54 -22.87901 -43.17638 460 ft 125 kts 141°
2026-05-05 22:54 -22.88603 -43.17090 340 ft 124 kts 149°
2026-05-05 22:54 -22.89359 -43.16651 230 ft 123 kts 156°
2026-05-05 22:55 -22.90167 -43.16367 105 ft 123 kts 170°
2026-05-05 22:55 -22.90995 -43.16293 20 ft 100 kts 175°
2026-05-05 22:55 -22.91264 -43.16273 19 ft 17 kts 177°
2026-05-05 22:55 -22.91343 -43.16333 17 ft 14 kts 276°
2026-05-05 22:56 -22.91352 -43.16441 21 ft 15 kts 269°
2026-05-05 22:56 -22.91337 -43.16496 21 ft 2 kts 320°
2026-05-05 22:56 -22.91321 -43.16524 19 ft 7 kts 290°
2026-05-05 22:56 -22.91317 -43.16552 19 ft 3 kts 274°
2026-05-05 22:57 -22.91317 -43.16567 19 ft 1 kts 272°